Year,Month,Day,Hour,Minute,Value (Times are PST for temperature in C)
2015,11,13,00,00,10.00
2015,11,13,00,01,10.00
2015,11,13,00,02,10.00
2015,11,13,00,03,10.00
2015,11,13,00,04,10.10
2015,11,13,00,05,10.10
2015,11,13,00,06,10.10
2015,11,13,00,07,10.10
2015,11,13,00,08,10.10
2015,11,13,00,09,10.20
2015,11,13,00,10,10.20
2015,11,13,00,11,10.20
2015,11,13,00,12,10.20
2015,11,13,00,13,10.30
2015,11,13,00,14,10.30
2015,11,13,00,15,10.30
2015,11,13,00,16,10.30
2015,11,13,00,17,10.30
2015,11,13,00,18,10.30
2015,11,13,00,19,10.40
2015,11,13,00,20,10.40
2015,11,13,00,21,10.40
2015,11,13,00,22,10.40
2015,11,13,00,23,10.40
2015,11,13,00,24,10.40
2015,11,13,00,25,10.40
2015,11,13,00,26,10.40
2015,11,13,00,27,10.50
2015,11,13,00,28,10.50
2015,11,13,00,29,10.50
2015,11,13,00,30,10.40
2015,11,13,00,31,10.40
2015,11,13,00,32,10.50
2015,11,13,00,33,10.50
2015,11,13,00,34,10.50
2015,11,13,00,35,10.50
2015,11,13,00,36,10.50
2015,11,13,00,37,10.50
2015,11,13,00,38,10.50
2015,11,13,00,39,10.50
2015,11,13,00,40,10.50
2015,11,13,00,41,10.50
2015,11,13,00,42,10.50
2015,11,13,00,43,10.50
2015,11,13,00,44,10.50
2015,11,13,00,45,10.50
2015,11,13,00,46,10.50
2015,11,13,00,47,10.50
2015,11,13,00,48,10.50
2015,11,13,00,49,10.50
2015,11,13,00,50,10.50
2015,11,13,00,51,10.50
2015,11,13,00,52,10.50
2015,11,13,00,53,10.50
2015,11,13,00,54,10.50
2015,11,13,00,55,10.60
2015,11,13,00,56,10.60
2015,11,13,00,57,10.60
2015,11,13,00,58,10.60
2015,11,13,00,59,10.60
2015,11,13,01,00,10.60
2015,11,13,01,01,10.70
2015,11,13,01,02,10.70
2015,11,13,01,03,10.70
2015,11,13,01,04,10.70
2015,11,13,01,05,10.70
2015,11,13,01,06,10.70
2015,11,13,01,07,10.70
2015,11,13,01,08,10.70
2015,11,13,01,09,10.70
2015,11,13,01,10,10.70
2015,11,13,01,11,10.70
2015,11,13,01,12,10.70
2015,11,13,01,13,10.70
2015,11,13,01,14,10.70
2015,11,13,01,15,10.70
2015,11,13,01,16,10.70
2015,11,13,01,17,10.70
2015,11,13,01,18,10.70
2015,11,13,01,19,10.70
2015,11,13,01,20,10.70
2015,11,13,01,21,10.70
2015,11,13,01,22,10.70
2015,11,13,01,23,10.70
2015,11,13,01,24,10.70
2015,11,13,01,25,10.70
2015,11,13,01,26,10.70
2015,11,13,01,27,10.70
2015,11,13,01,28,10.70
2015,11,13,01,29,10.60
2015,11,13,01,30,10.60
2015,11,13,01,31,10.60
2015,11,13,01,32,10.50
2015,11,13,01,33,10.50
2015,11,13,01,34,10.40
2015,11,13,01,35,10.40
2015,11,13,01,36,10.30
2015,11,13,01,37,10.30
2015,11,13,01,38,10.20
2015,11,13,01,39,10.20
2015,11,13,01,40,10.20
2015,11,13,01,41,10.20
2015,11,13,01,42,10.20
2015,11,13,01,43,10.20
2015,11,13,01,44,10.20
2015,11,13,01,45,10.20
2015,11,13,01,46,10.20
2015,11,13,01,47,10.20
2015,11,13,01,48,10.20
2015,11,13,01,49,10.20
2015,11,13,01,50,10.20
2015,11,13,01,51,10.20
2015,11,13,01,52,10.20
2015,11,13,01,53,10.20
2015,11,13,01,54,10.20
2015,11,13,01,55,10.20
2015,11,13,01,56,10.20
2015,11,13,01,57,10.20
2015,11,13,01,58,10.20
2015,11,13,01,59,10.20
2015,11,13,02,00,10.20
2015,11,13,02,01,10.30
2015,11,13,02,02,10.30
2015,11,13,02,03,10.30
2015,11,13,02,04,10.30
2015,11,13,02,05,10.30
2015,11,13,02,06,10.30
2015,11,13,02,07,10.30
2015,11,13,02,08,10.30
2015,11,13,02,09,10.30
2015,11,13,02,10,10.30
2015,11,13,02,11,10.30
2015,11,13,02,12,10.30
2015,11,13,02,13,10.30
2015,11,13,02,14,10.30
2015,11,13,02,15,10.30
2015,11,13,02,16,10.30
2015,11,13,02,17,10.30
2015,11,13,02,18,10.30
2015,11,13,02,19,10.30
2015,11,13,02,20,10.30
2015,11,13,02,21,10.30
2015,11,13,02,22,10.30
2015,11,13,02,23,10.30
2015,11,13,02,24,10.40
2015,11,13,02,25,10.40
2015,11,13,02,26,10.40
2015,11,13,02,27,10.40
2015,11,13,02,28,10.40
2015,11,13,02,29,10.40
2015,11,13,02,30,10.40
2015,11,13,02,31,10.40
2015,11,13,02,32,10.40
2015,11,13,02,33,10.40
2015,11,13,02,34,10.40
2015,11,13,02,35,10.40
2015,11,13,02,36,10.40
2015,11,13,02,37,10.40
2015,11,13,02,38,10.40
2015,11,13,02,39,10.40
2015,11,13,02,40,10.30
2015,11,13,02,41,10.30
2015,11,13,02,42,10.30
2015,11,13,02,43,10.30
2015,11,13,02,44,10.30
2015,11,13,02,45,10.30
2015,11,13,02,46,10.30
2015,11,13,02,47,10.40
2015,11,13,02,48,10.40
2015,11,13,02,49,10.40
2015,11,13,02,50,10.40
2015,11,13,02,51,10.40
2015,11,13,02,52,10.40
2015,11,13,02,53,10.40
2015,11,13,02,54,10.40
2015,11,13,02,55,10.40
2015,11,13,02,56,10.40
2015,11,13,02,57,10.40
2015,11,13,02,58,10.40
2015,11,13,02,59,10.40
2015,11,13,03,00,10.40
2015,11,13,03,01,10.50
2015,11,13,03,02,10.50
2015,11,13,03,03,10.50
2015,11,13,03,04,10.50
2015,11,13,03,05,10.50
2015,11,13,03,06,10.60
2015,11,13,03,07,10.60
2015,11,13,03,08,10.60
2015,11,13,03,09,10.70
2015,11,13,03,10,10.70
2015,11,13,03,11,10.70
2015,11,13,03,12,10.80
2015,11,13,03,13,10.80
2015,11,13,03,14,10.80
2015,11,13,03,15,10.90
2015,11,13,03,16,10.90
2015,11,13,03,17,10.90
2015,11,13,03,18,11.00
2015,11,13,03,19,11.00
2015,11,13,03,20,11.10
2015,11,13,03,21,11.10
2015,11,13,03,22,11.10
2015,11,13,03,23,11.20
2015,11,13,03,24,11.20
2015,11,13,03,25,11.20
2015,11,13,03,26,11.30
2015,11,13,03,27,11.30
2015,11,13,03,28,11.40
2015,11,13,03,29,11.40
2015,11,13,03,30,11.40
2015,11,13,03,31,11.40
2015,11,13,03,32,11.40
2015,11,13,03,33,11.40
2015,11,13,03,34,11.50
2015,11,13,03,35,11.50
2015,11,13,03,36,11.50
2015,11,13,03,37,11.60
2015,11,13,03,38,11.60
2015,11,13,03,39,11.60
2015,11,13,03,40,11.50
2015,11,13,03,41,11.50
2015,11,13,03,42,11.60
2015,11,13,03,43,11.60
2015,11,13,03,44,11.60
2015,11,13,03,45,11.50
2015,11,13,03,46,11.60
2015,11,13,03,47,11.60
2015,11,13,03,48,11.60
2015,11,13,03,49,11.50
2015,11,13,03,50,11.50
2015,11,13,03,51,11.50
2015,11,13,03,52,11.40
2015,11,13,03,53,11.40
2015,11,13,03,54,11.40
2015,11,13,03,55,11.40
2015,11,13,03,56,11.30
2015,11,13,03,57,11.30
2015,11,13,03,58,11.30
2015,11,13,03,59,11.30
2015,11,13,04,00,11.30
2015,11,13,04,01,11.30
2015,11,13,04,02,11.30
2015,11,13,04,03,11.30
2015,11,13,04,04,11.30
2015,11,13,04,05,11.30
2015,11,13,04,06,11.30
2015,11,13,04,07,11.30
2015,11,13,04,08,11.30
2015,11,13,04,09,11.30
2015,11,13,04,10,11.20
2015,11,13,04,11,11.30
2015,11,13,04,12,11.30
2015,11,13,04,13,11.30
2015,11,13,04,14,11.30
2015,11,13,04,15,11.20
2015,11,13,04,16,11.20
2015,11,13,04,17,11.20
2015,11,13,04,18,11.20
2015,11,13,04,19,11.20
2015,11,13,04,20,11.10
2015,11,13,04,21,11.10
2015,11,13,04,22,11.10
2015,11,13,04,23,11.10
2015,11,13,04,24,11.00
2015,11,13,04,25,11.00
2015,11,13,04,26,10.90
2015,11,13,04,27,10.90
2015,11,13,04,28,10.90
2015,11,13,04,29,10.90
2015,11,13,04,30,10.90
2015,11,13,04,31,10.90
2015,11,13,04,32,10.90
2015,11,13,04,33,10.90
2015,11,13,04,34,10.90
2015,11,13,04,35,10.90
2015,11,13,04,36,10.90
2015,11,13,04,37,10.90
2015,11,13,04,38,10.90
2015,11,13,04,39,10.90
2015,11,13,04,40,10.90
2015,11,13,04,41,10.90
2015,11,13,04,42,10.90
2015,11,13,04,43,10.90
2015,11,13,04,44,10.90
2015,11,13,04,45,11.00
2015,11,13,04,46,11.00
2015,11,13,04,47,11.00
2015,11,13,04,48,11.10
2015,11,13,04,49,11.10
2015,11,13,04,50,11.10
2015,11,13,04,51,11.10
2015,11,13,04,52,11.10
2015,11,13,04,53,11.10
2015,11,13,04,54,11.20
2015,11,13,04,55,11.20
2015,11,13,04,56,11.20
2015,11,13,04,57,11.30
2015,11,13,04,58,11.30
2015,11,13,04,59,11.30
2015,11,13,05,00,11.40
2015,11,13,05,01,11.40
2015,11,13,05,02,11.40
2015,11,13,05,03,11.50
2015,11,13,05,04,11.50
2015,11,13,05,05,11.60
2015,11,13,05,06,11.60
2015,11,13,05,07,11.60
2015,11,13,05,08,11.70
2015,11,13,05,09,11.70
2015,11,13,05,10,11.70
2015,11,13,05,11,11.70
2015,11,13,05,12,11.70
2015,11,13,05,13,11.70
2015,11,13,05,14,11.70
2015,11,13,05,15,11.70
2015,11,13,05,16,11.80
2015,11,13,05,17,11.80
2015,11,13,05,18,11.80
2015,11,13,05,19,11.80
2015,11,13,05,20,11.80
2015,11,13,05,21,11.80
2015,11,13,05,22,11.80
2015,11,13,05,23,11.80
2015,11,13,05,24,11.80
2015,11,13,05,25,11.80
2015,11,13,05,26,11.80
2015,11,13,05,27,11.80
2015,11,13,05,28,11.80
2015,11,13,05,29,11.80
2015,11,13,05,30,11.80
2015,11,13,05,31,11.80
2015,11,13,05,32,11.70
2015,11,13,05,33,11.70
2015,11,13,05,34,11.70
2015,11,13,05,35,11.70
2015,11,13,05,36,11.70
2015,11,13,05,37,11.70
2015,11,13,05,38,11.70
2015,11,13,05,39,11.60
2015,11,13,05,40,11.60
2015,11,13,05,41,11.60
2015,11,13,05,42,11.60
2015,11,13,05,43,11.60
2015,11,13,05,44,11.60
2015,11,13,05,45,11.60
2015,11,13,05,46,11.60
2015,11,13,05,47,11.60
2015,11,13,05,48,11.60
2015,11,13,05,49,11.60
2015,11,13,08,04,11.70
2015,11,13,08,05,11.70
2015,11,13,08,06,11.60
2015,11,13,08,07,11.60
2015,11,13,08,08,11.60
2015,11,13,08,09,11.60
2015,11,13,08,10,11.60
2015,11,13,08,11,11.60
2015,11,13,08,12,11.60
2015,11,13,08,13,11.60
2015,11,13,08,14,11.60
2015,11,13,08,15,11.60
2015,11,13,08,16,11.60
2015,11,13,08,17,11.60
2015,11,13,08,18,11.60
2015,11,13,08,19,11.60
2015,11,13,08,20,11.60
2015,11,13,08,21,11.60
2015,11,13,08,22,11.60
2015,11,13,08,23,11.60
2015,11,13,08,24,11.60
2015,11,13,08,25,11.60
2015,11,13,08,26,11.60
2015,11,13,08,27,11.60
2015,11,13,08,28,11.60
2015,11,13,08,29,11.60
2015,11,13,08,30,11.60
2015,11,13,08,31,11.60
2015,11,13,08,32,11.60
2015,11,13,08,33,11.60
2015,11,13,08,34,11.60
2015,11,13,08,35,11.60
2015,11,13,08,36,11.60
2015,11,13,08,37,11.60
2015,11,13,08,38,11.60
2015,11,13,08,39,11.60
2015,11,13,08,40,11.60
2015,11,13,08,41,11.60
2015,11,13,08,42,11.70
2015,11,13,08,43,11.70
2015,11,13,08,44,11.70
2015,11,13,08,45,11.70
2015,11,13,08,46,11.70
2015,11,13,08,47,11.70
2015,11,13,08,48,11.80
2015,11,13,08,49,11.80
2015,11,13,08,50,11.80
2015,11,13,08,51,11.80
2015,11,13,08,52,11.80
2015,11,13,08,53,11.80
2015,11,13,08,54,11.80
2015,11,13,08,55,11.80
2015,11,13,08,56,11.90
2015,11,13,08,57,11.90
2015,11,13,08,58,11.90
2015,11,13,08,59,11.90
2015,11,13,09,00,11.90
2015,11,13,09,01,11.90
2015,11,13,09,02,11.90
2015,11,13,09,03,11.90
2015,11,13,09,04,11.90
2015,11,13,09,05,11.90
2015,11,13,09,06,11.90
2015,11,13,09,07,11.90
2015,11,13,09,08,11.90
2015,11,13,09,09,11.90
2015,11,13,09,10,12.00
2015,11,13,09,11,12.00
2015,11,13,09,12,12.00
2015,11,13,09,13,12.10
2015,11,13,09,14,12.10
2015,11,13,09,15,12.10
2015,11,13,09,16,12.10
2015,11,13,09,17,12.10
2015,11,13,09,18,12.10
2015,11,13,09,19,12.10
2015,11,13,09,20,12.10
2015,11,13,09,21,12.10
2015,11,13,09,22,12.10
2015,11,13,09,23,12.10
2015,11,13,09,24,12.10
2015,11,13,09,25,12.10
2015,11,13,09,26,12.10
2015,11,13,09,27,12.10
2015,11,13,09,28,12.10
2015,11,13,09,29,12.10
2015,11,13,09,30,12.10
2015,11,13,09,31,12.10
2015,11,13,09,32,12.10
2015,11,13,09,33,12.10
2015,11,13,09,34,12.10
2015,11,13,09,35,12.10
2015,11,13,09,36,12.10
2015,11,13,09,37,12.00
2015,11,13,09,38,12.00
2015,11,13,09,39,12.00
2015,11,13,09,40,12.00
2015,11,13,09,41,12.00
2015,11,13,09,42,12.00
2015,11,13,09,43,12.00
2015,11,13,09,44,12.10
2015,11,13,09,45,12.10
2015,11,13,09,46,12.10
2015,11,13,09,47,12.10
2015,11,13,09,48,12.10
2015,11,13,09,49,12.10
2015,11,13,09,50,12.00
2015,11,13,09,51,12.00
2015,11,13,09,52,12.00
2015,11,13,09,53,12.00
2015,11,13,09,54,12.00
2015,11,13,09,55,12.00
2015,11,13,09,56,12.00
2015,11,13,09,57,12.00
2015,11,13,09,58,12.00
2015,11,13,09,59,12.00
2015,11,13,10,00,11.90
2015,11,13,10,01,11.90
2015,11,13,10,02,11.90
2015,11,13,10,03,11.90
2015,11,13,10,04,11.80
2015,11,13,10,05,11.80
2015,11,13,10,06,11.80
2015,11,13,10,07,11.70
2015,11,13,10,08,11.70
2015,11,13,10,09,11.70
2015,11,13,10,10,11.70
2015,11,13,10,11,11.70
2015,11,13,10,12,11.70
2015,11,13,10,13,11.60
2015,11,13,10,14,11.60
2015,11,13,10,15,11.60
2015,11,13,10,16,11.60
2015,11,13,10,17,11.60
2015,11,13,10,18,11.60
2015,11,13,10,19,11.60
2015,11,13,10,20,11.60
2015,11,13,10,21,11.60
2015,11,13,10,22,11.50
2015,11,13,10,23,11.50
2015,11,13,10,24,11.50
2015,11,13,10,25,11.50
2015,11,13,10,26,11.50
2015,11,13,10,27,11.50
2015,11,13,10,28,11.50
2015,11,13,10,29,11.50
2015,11,13,10,30,11.50
2015,11,13,10,31,11.50
2015,11,13,10,32,11.50
2015,11,13,10,33,11.50
2015,11,13,10,34,11.50
2015,11,13,10,35,11.50
2015,11,13,10,36,11.60
2015,11,13,10,37,11.60
2015,11,13,10,38,11.60
2015,11,13,10,39,11.60
2015,11,13,10,40,11.60
2015,11,13,10,41,11.60
2015,11,13,10,42,11.60
2015,11,13,10,43,11.60
2015,11,13,10,44,11.60
2015,11,13,10,45,11.70
2015,11,13,10,46,11.70
2015,11,13,10,47,11.70
2015,11,13,10,48,11.70
2015,11,13,10,49,11.70
2015,11,13,10,50,11.70
2015,11,13,10,51,11.70
2015,11,13,10,52,11.80
2015,11,13,10,53,11.80
2015,11,13,10,54,11.80
2015,11,13,10,55,11.80
2015,11,13,10,56,11.80
2015,11,13,10,57,11.80
2015,11,13,10,58,11.80
2015,11,13,10,59,11.80
2015,11,13,11,00,11.90
2015,11,13,11,01,11.90
2015,11,13,11,02,11.90
2015,11,13,11,03,11.90
2015,11,13,11,04,11.90
2015,11,13,11,05,12.00
2015,11,13,11,06,12.00
2015,11,13,11,07,12.00
2015,11,13,11,08,12.10
2015,11,13,11,09,12.10
2015,11,13,11,10,12.10
2015,11,13,11,11,12.10
2015,11,13,11,12,12.10
2015,11,13,11,13,12.10
2015,11,13,11,14,12.20
2015,11,13,11,15,12.20
2015,11,13,11,16,12.20
2015,11,13,11,17,12.20
2015,11,13,11,18,12.20
2015,11,13,11,19,12.20
2015,11,13,11,20,12.20
2015,11,13,11,21,12.20
2015,11,13,11,22,12.20
2015,11,13,11,23,12.20
2015,11,13,11,24,12.20
2015,11,13,11,25,12.20
2015,11,13,11,26,12.30
2015,11,13,11,27,12.30
2015,11,13,11,28,12.30
2015,11,13,11,29,12.30
2015,11,13,11,30,12.30
2015,11,13,11,31,12.30
2015,11,13,11,32,12.30
2015,11,13,11,33,12.30
2015,11,13,11,34,12.30
2015,11,13,11,35,12.30
2015,11,13,11,36,12.30
2015,11,13,11,37,12.30
2015,11,13,11,38,12.30
2015,11,13,11,39,12.30
2015,11,13,11,40,12.30
2015,11,13,11,41,12.30
2015,11,13,11,42,12.30
2015,11,13,11,43,12.30
2015,11,13,11,44,12.30
2015,11,13,11,45,12.30
2015,11,13,11,46,12.30
2015,11,13,11,47,12.30
2015,11,13,11,48,12.30
2015,11,13,11,49,12.30
2015,11,13,11,50,12.30
2015,11,13,11,51,12.30
2015,11,13,11,52,12.30
2015,11,13,11,53,12.30
2015,11,13,11,54,12.30
2015,11,13,11,55,12.30
2015,11,13,11,56,12.30
2015,11,13,11,57,12.40
2015,11,13,11,58,12.40
2015,11,13,11,59,12.40
2015,11,13,12,00,12.40
2015,11,13,12,01,12.40
2015,11,13,12,02,12.40
2015,11,13,12,03,12.40
2015,11,13,12,04,12.40
2015,11,13,12,05,12.40
2015,11,13,12,06,12.40
2015,11,13,12,07,12.50
2015,11,13,12,08,12.50
2015,11,13,12,09,12.50
2015,11,13,12,10,12.50
2015,11,13,12,11,12.50
2015,11,13,12,12,12.50
2015,11,13,12,13,12.50
2015,11,13,12,14,12.50
2015,11,13,12,15,12.50
2015,11,13,12,16,12.50
2015,11,13,12,17,12.50
2015,11,13,12,18,12.60
2015,11,13,12,19,12.60
2015,11,13,12,20,12.60
2015,11,13,12,21,12.60
2015,11,13,12,22,12.60
2015,11,13,12,23,12.60
2015,11,13,12,24,12.60
2015,11,13,12,25,12.60
2015,11,13,12,26,12.60
2015,11,13,12,27,12.60
2015,11,13,12,28,12.60
2015,11,13,12,29,12.60
2015,11,13,12,30,12.60
2015,11,13,12,31,12.70
2015,11,13,12,32,12.60
2015,11,13,12,33,12.70
2015,11,13,12,34,12.70
2015,11,13,12,35,12.70
2015,11,13,12,36,12.70
2015,11,13,12,37,12.70
2015,11,13,12,38,12.70
2015,11,13,12,39,12.70
2015,11,13,12,40,12.70
2015,11,13,12,41,12.70
2015,11,13,12,42,12.70
2015,11,13,12,43,12.70
2015,11,13,12,44,12.70
2015,11,13,12,45,12.70
2015,11,13,12,46,12.70
2015,11,13,12,47,12.70
2015,11,13,12,48,12.80
2015,11,13,12,49,12.80
2015,11,13,12,50,12.80
2015,11,13,12,51,12.80
2015,11,13,12,52,12.80
2015,11,13,12,53,12.80
2015,11,13,12,54,12.80
2015,11,13,12,55,12.80
2015,11,13,12,56,12.80
2015,11,13,12,57,12.80
2015,11,13,12,58,12.80
2015,11,13,12,59,12.80
2015,11,13,13,00,12.80
2015,11,13,13,01,12.80
2015,11,13,13,02,12.80
2015,11,13,13,03,12.80
2015,11,13,13,04,12.80
2015,11,13,13,05,12.80
2015,11,13,13,06,12.80
2015,11,13,13,07,12.80
2015,11,13,13,08,12.80
2015,11,13,13,09,12.80
2015,11,13,13,10,12.80
2015,11,13,13,11,12.80
2015,11,13,13,12,12.90
2015,11,13,13,13,12.90
2015,11,13,13,14,12.90
2015,11,13,13,15,12.90
2015,11,13,13,16,12.90
2015,11,13,13,17,12.90
2015,11,13,13,18,13.00
2015,11,13,13,19,13.00
2015,11,13,13,20,13.00
2015,11,13,13,21,13.00
2015,11,13,13,22,13.00
2015,11,13,13,23,13.00
2015,11,13,13,24,13.00
2015,11,13,13,25,13.00
2015,11,13,13,26,13.10
2015,11,13,13,27,13.00
2015,11,13,13,28,13.00
2015,11,13,13,29,13.00
2015,11,13,13,30,13.00
2015,11,13,13,31,13.00
2015,11,13,13,32,13.00
2015,11,13,13,33,13.00
2015,11,13,13,34,13.00
2015,11,13,13,35,13.00
2015,11,13,13,36,13.00
2015,11,13,13,37,13.00
2015,11,13,13,38,13.00
2015,11,13,13,39,13.00
2015,11,13,13,40,13.00
2015,11,13,13,41,13.00
2015,11,13,13,42,13.00
2015,11,13,13,43,13.00
2015,11,13,13,44,13.00
2015,11,13,13,45,13.00
2015,11,13,13,46,13.00
2015,11,13,13,47,13.00
2015,11,13,13,48,13.00
2015,11,13,13,49,13.00
2015,11,13,13,50,13.00
2015,11,13,13,51,13.00
2015,11,13,13,52,13.00
2015,11,13,13,53,13.00
2015,11,13,13,54,13.10
2015,11,13,13,55,13.10
2015,11,13,13,56,13.10
2015,11,13,13,57,13.10
2015,11,13,13,58,13.10
2015,11,13,13,59,13.10
2015,11,13,14,00,13.10
2015,11,13,14,01,13.10
2015,11,13,14,02,13.10
2015,11,13,14,03,13.10
2015,11,13,14,04,13.20
2015,11,13,14,05,13.20
2015,11,13,14,06,13.20
2015,11,13,14,07,13.20
2015,11,13,14,08,13.20
2015,11,13,14,09,13.20
2015,11,13,14,10,13.20
2015,11,13,14,11,13.20
2015,11,13,14,12,13.20
2015,11,13,14,13,13.20
2015,11,13,14,14,13.20
2015,11,13,14,15,13.20
2015,11,13,14,16,13.10
2015,11,13,14,17,13.10
2015,11,13,14,18,13.10
2015,11,13,14,19,13.10
2015,11,13,14,20,13.00
2015,11,13,14,21,13.00
2015,11,13,14,22,13.00
2015,11,13,14,23,13.00
2015,11,13,14,24,12.90
2015,11,13,14,25,12.90
2015,11,13,14,26,12.90
2015,11,13,14,27,12.90
2015,11,13,14,28,12.90
2015,11,13,14,29,12.90
2015,11,13,14,30,12.90
2015,11,13,14,31,12.90
2015,11,13,14,32,12.90
2015,11,13,14,33,12.90
2015,11,13,14,34,12.90
2015,11,13,14,35,12.90
2015,11,13,14,36,12.90
2015,11,13,14,37,12.90
2015,11,13,14,38,12.90
2015,11,13,14,39,12.80
2015,11,13,14,40,12.80
2015,11,13,14,41,12.80
2015,11,13,14,42,12.80
2015,11,13,14,43,12.80
2015,11,13,14,44,12.80
2015,11,13,14,45,12.80
2015,11,13,14,46,12.80
2015,11,13,14,47,12.70
2015,11,13,14,48,12.70
2015,11,13,14,49,12.70
2015,11,13,14,50,12.60
2015,11,13,14,51,12.60
2015,11,13,14,52,12.50
2015,11,13,14,53,12.50
2015,11,13,14,54,12.40
2015,11,13,14,55,12.40
2015,11,13,14,56,12.40
2015,11,13,14,57,12.40
2015,11,13,14,58,12.40
2015,11,13,14,59,12.30
2015,11,13,15,00,12.30
2015,11,13,15,01,12.30
2015,11,13,15,02,12.30
2015,11,13,15,03,12.30
2015,11,13,15,04,12.30
2015,11,13,15,05,12.20
2015,11,13,15,06,12.20
2015,11,13,15,07,12.20
2015,11,13,15,08,12.20
2015,11,13,15,09,12.10
2015,11,13,15,10,12.10
2015,11,13,15,11,12.10
2015,11,13,15,12,12.10
2015,11,13,15,13,12.10
2015,11,13,15,14,12.10
2015,11,13,15,15,12.10
2015,11,13,15,16,12.00
2015,11,13,15,17,12.00
2015,11,13,15,18,11.90
2015,11,13,15,19,11.90
2015,11,13,15,20,11.80
2015,11,13,15,21,11.80
2015,11,13,15,22,11.80
2015,11,13,15,23,11.80
2015,11,13,15,24,11.80
2015,11,13,15,25,11.80
2015,11,13,15,26,11.80
2015,11,13,15,27,11.80
2015,11,13,15,28,11.70
2015,11,13,15,29,11.80
2015,11,13,15,30,11.80
2015,11,13,15,31,11.80
2015,11,13,15,32,11.80
2015,11,13,15,33,11.80
2015,11,13,15,34,11.80
2015,11,13,15,35,11.70
2015,11,13,15,36,11.70
2015,11,13,15,37,11.70
2015,11,13,15,38,11.70
2015,11,13,15,39,11.60
2015,11,13,15,40,11.60
2015,11,13,15,41,11.50
2015,11,13,15,42,11.50
2015,11,13,15,43,11.40
2015,11,13,15,44,11.40
2015,11,13,15,45,11.40
2015,11,13,15,46,11.30
2015,11,13,15,47,11.30
2015,11,13,15,48,11.30
2015,11,13,15,49,11.30
2015,11,13,15,50,11.20
2015,11,13,15,51,11.20
2015,11,13,15,52,11.20
2015,11,13,15,53,11.20
2015,11,13,15,54,11.20
2015,11,13,15,55,11.20
2015,11,13,15,56,11.20
2015,11,13,15,57,11.20
2015,11,13,15,58,11.20
2015,11,13,15,59,11.20
2015,11,13,16,00,11.20
2015,11,13,16,01,11.20
2015,11,13,16,02,11.20
2015,11,13,16,03,11.20
2015,11,13,16,04,11.10
2015,11,13,16,05,11.10
2015,11,13,16,06,11.10
2015,11,13,16,07,11.10
2015,11,13,16,08,11.10
2015,11,13,16,09,11.10
2015,11,13,16,10,11.00
2015,11,13,16,11,11.00
2015,11,13,16,12,11.00
2015,11,13,16,13,10.90
2015,11,13,16,14,10.90
2015,11,13,16,15,10.90
2015,11,13,16,16,10.90
2015,11,13,16,17,10.90
2015,11,13,16,18,10.80
2015,11,13,16,19,10.80
2015,11,13,16,20,10.80
2015,11,13,16,21,10.80
2015,11,13,16,22,10.80
2015,11,13,16,23,10.70
2015,11,13,16,24,10.70
2015,11,13,16,25,10.70
2015,11,13,16,26,10.70
2015,11,13,16,27,10.70
2015,11,13,16,28,10.60
2015,11,13,16,29,10.60
2015,11,13,16,30,10.60
2015,11,13,16,31,10.60
2015,11,13,16,32,10.60
2015,11,13,16,33,10.50
2015,11,13,16,34,10.50
2015,11,13,16,35,10.50
2015,11,13,16,36,10.40
2015,11,13,16,37,10.40
2015,11,13,16,38,10.40
2015,11,13,16,39,10.40
2015,11,13,16,40,10.40
2015,11,13,16,41,10.40
2015,11,13,16,42,10.40
2015,11,13,16,43,10.30
2015,11,13,16,44,10.30
2015,11,13,16,45,10.30
2015,11,13,16,46,10.30
2015,11,13,16,47,10.30
2015,11,13,16,48,10.30
2015,11,13,16,49,10.30
2015,11,13,16,50,10.30
2015,11,13,16,51,10.20
2015,11,13,16,52,10.20
2015,11,13,16,53,10.20
2015,11,13,16,54,10.20
2015,11,13,16,55,10.20
2015,11,13,16,56,10.20
2015,11,13,16,57,10.20
2015,11,13,16,58,10.20
2015,11,13,16,59,10.20
2015,11,13,17,00,10.20
2015,11,13,17,01,10.20
2015,11,13,17,02,10.20
2015,11,13,17,03,10.20
2015,11,13,17,04,10.20
2015,11,13,17,05,10.20
2015,11,13,17,06,10.20
2015,11,13,17,07,10.20
2015,11,13,17,08,10.20
2015,11,13,17,09,10.20
2015,11,13,17,10,10.20
2015,11,13,17,11,10.20
2015,11,13,17,12,10.20
2015,11,13,17,13,10.20
2015,11,13,17,14,10.20
2015,11,13,17,15,10.20
2015,11,13,17,16,10.20
2015,11,13,17,17,10.20
2015,11,13,17,18,10.20
2015,11,13,17,19,10.20
2015,11,13,17,20,10.20
2015,11,13,17,21,10.20
2015,11,13,17,22,10.20
2015,11,13,17,23,10.20
2015,11,13,17,24,10.20
2015,11,13,17,25,10.20
2015,11,13,17,26,10.20
2015,11,13,17,27,10.20
2015,11,13,17,28,10.20
2015,11,13,17,29,10.20
2015,11,13,17,30,10.10
2015,11,13,17,31,10.10
2015,11,13,17,32,10.10
2015,11,13,17,33,10.10
2015,11,13,17,34,10.20
2015,11,13,17,35,10.20
2015,11,13,17,36,10.20
2015,11,13,17,37,10.20
2015,11,13,17,38,10.20
2015,11,13,17,39,10.20
2015,11,13,17,40,10.20
2015,11,13,17,41,10.20
2015,11,13,17,42,10.20
2015,11,13,17,43,10.20
2015,11,13,17,44,10.20
2015,11,13,17,45,10.20
2015,11,13,17,46,10.20
2015,11,13,17,47,10.20
2015,11,13,17,48,10.20
2015,11,13,17,49,10.20
2015,11,13,17,50,10.20
2015,11,13,17,51,10.20
2015,11,13,17,52,10.20
2015,11,13,17,53,10.20
2015,11,13,17,54,10.10
2015,11,13,17,55,10.10
2015,11,13,17,56,10.10
2015,11,13,17,57,10.10
2015,11,13,17,58,10.10
2015,11,13,17,59,10.10
2015,11,13,18,00,10.10
2015,11,13,18,01,10.10
2015,11,13,18,02,10.10
2015,11,13,18,03,10.10
2015,11,13,18,04,10.10
2015,11,13,18,05,10.10
2015,11,13,18,06,10.10
2015,11,13,18,07,10.10
2015,11,13,18,08,10.10
2015,11,13,18,09,10.10
2015,11,13,18,10,10.10
2015,11,13,18,11,10.10
2015,11,13,18,12,10.10
2015,11,13,18,13,10.10
2015,11,13,18,14,10.00
2015,11,13,18,15,10.00
2015,11,13,18,16,10.00
2015,11,13,18,17,10.00
2015,11,13,18,18,10.00
2015,11,13,18,19,9.90
2015,11,13,18,20,9.90
2015,11,13,18,21,9.90
2015,11,13,18,22,9.90
2015,11,13,18,23,9.90
2015,11,13,18,24,9.90
2015,11,13,18,25,9.90
2015,11,13,18,26,9.90
2015,11,13,18,27,9.80
2015,11,13,18,28,9.80
2015,11,13,18,29,9.80
2015,11,13,18,30,9.80
2015,11,13,18,31,9.80
2015,11,13,18,32,9.80
2015,11,13,18,33,9.80
2015,11,13,18,34,9.80
2015,11,13,18,35,9.80
2015,11,13,18,36,9.80
2015,11,13,18,37,9.80
2015,11,13,18,38,9.70
2015,11,13,18,39,9.70
2015,11,13,18,40,9.70
2015,11,13,18,41,9.70
2015,11,13,18,42,9.60
2015,11,13,18,43,9.60
2015,11,13,18,44,9.60
2015,11,13,18,45,9.60
2015,11,13,18,46,9.50
2015,11,13,18,47,9.50
2015,11,13,18,48,9.50
2015,11,13,18,49,9.40
2015,11,13,18,50,9.40
2015,11,13,18,51,9.40
2015,11,13,18,52,9.40
2015,11,13,18,53,9.30
2015,11,13,18,54,9.30
2015,11,13,18,55,9.30
2015,11,13,18,56,9.30
2015,11,13,18,57,9.20
2015,11,13,18,58,9.20
2015,11,13,18,59,9.20
2015,11,13,19,00,9.20
2015,11,13,19,01,9.20
2015,11,13,19,02,9.20
2015,11,13,19,03,9.20
2015,11,13,19,04,9.20
2015,11,13,19,05,9.20
2015,11,13,19,06,9.10
2015,11,13,19,07,9.10
2015,11,13,19,08,9.10
2015,11,13,19,09,9.10
2015,11,13,19,10,9.10
2015,11,13,19,11,9.00
2015,11,13,19,12,9.00
2015,11,13,19,13,9.00
2015,11,13,19,14,8.90
2015,11,13,19,15,8.90
2015,11,13,19,16,8.90
2015,11,13,19,17,8.80
2015,11,13,19,18,8.80
2015,11,13,19,19,8.80
2015,11,13,19,20,8.80
2015,11,13,19,21,8.70
2015,11,13,19,22,8.70
2015,11,13,19,23,8.70
2015,11,13,19,24,8.70
2015,11,13,19,25,8.60
2015,11,13,19,26,8.60
2015,11,13,19,27,8.60
2015,11,13,19,28,8.60
2015,11,13,19,29,8.60
2015,11,13,19,30,8.50
2015,11,13,19,31,8.50
2015,11,13,19,32,8.50
2015,11,13,19,33,8.40
2015,11,13,19,34,8.40
2015,11,13,19,35,8.40
2015,11,13,19,36,8.40